Flag for Germany Weather past 2 weeks in Solingen, North Rhine-Westphalia, Germany

Now
57 °F

Light rain. Broken clouds.


Feels Like: 55 °F
Forecast: 51 / 61 °F
Wind: 8 mph from Southwest

Location: Duesseldorf

Current Time: Apr 25, 2015 at 2:47:09 PM

Latest Report: Apr 25, 2015 at 2:20 PM


Visibility: 6 mi

Pressure: 29.77 "Hg

Humidity: 82%

Dew point: 52 °F

Location of SolingenLocation

Historic Weather in Solingen — Graph

°F

Solingen temperature yesterday

Maximum temperature yesterday: 70 °F (at 3:20 PM)
Minimum temperature yesterday: 39 °F (at 4:20 AM)
Average temperature yesterday: 57 °F

Past Weeks' High & Low Weather Summary

 TemperatureHumidityPressure
High75 °F (Apr 15, 3:20 PM)100% (Apr 23, 6:20 AM)30.48 "Hg (Apr 23, 6:20 AM)
Low36 °F (Apr 18, 4:50 AM)23% (Apr 21, 3:20 PM)29.77 "Hg (Apr 25, 4:20 AM)
Average53 °F61%30.18 "Hg
* Reported Apr 10 1:20 PM — Apr 25 1:50 PM, Solingen, Weather by CustomWeather, © 2015

Note: Actual official high and low records may vary slightly from our data, if they occured in-between our weather recording intervals... More about our weather records

Advertising

Solingen weather history for previous 24 hours

 ConditionsComfort  
Time TempWeatherWind HumidityBarometerVisibility
1:50 PM
Sat, Apr 25
57 °FLight rain. Cloudy.7 mph82%29.77 "Hg6 mi
1:20 PM57 °FLight rain. Cloudy.8 mph88%29.77 "Hg6 mi
12:50 PM57 °FLight rain. Cloudy.7 mph82%29.77 "Hg6 mi
12:20 PM57 °FLight rain. Cloudy.6 mph82%29.77 "Hg5 mi
11:50 AM55 °FLight rain. More clouds than sun.8 mph82%29.77 "HgN/A
11:20 AM55 °FMostly cloudy.7 mph82%29.80 "HgN/A
10:50 AM54 °FLight rain. Broken clouds.7 mph88%29.80 "Hg6 mi
10:20 AM54 °FLight rain. Broken clouds.8 mph88%29.80 "Hg6 mi
9:50 AM52 °FLight rain. Partly sunny.6 mph94%29.80 "Hg5 mi
9:20 AM52 °FLight rain. Partly sunny.9 mph94%29.80 "Hg5 mi
8:50 AM54 °FLight rain. Partly sunny.7 mph88%29.80 "Hg4 mi
8:20 AM54 °FLight rain. Broken clouds.6 mph88%29.77 "Hg4 mi
7:50 AM54 °FLight rain. Broken clouds.1 mph82%29.77 "Hg4 mi
7:20 AM54 °FLight rain. Partly sunny.5 mph82%29.77 "Hg6 mi
6:50 AM54 °FLight rain. Passing clouds.8 mph82%29.80 "Hg4 mi
6:20 AM55 °FLight rain. Passing clouds.7 mph72%29.77 "Hg6 mi
5:20 AM54 °FClear.2 mph88%29.77 "Hg10 mi
4:50 AM55 °FClear.3 mph77%29.77 "Hg10 mi
4:20 AM55 °FClear.1 mph82%29.77 "Hg10 mi
3:50 AM57 °FClear.2 mph77%29.80 "Hg10 mi
3:20 AM57 °FClear.3 mph82%29.80 "Hg10 mi
2:50 AM57 °FClear.3 mph88%29.80 "Hg10 mi
2:20 AM59 °FLight rain. Clear.No wind77%29.80 "HgN/A
1:50 AM61 °FClear.3 mph72%29.80 "Hg10 mi
1:20 AM61 °FLight rain. Clear.7 mph68%29.80 "HgN/A
12:50 AM63 °FLight rain. Clear.12 mph59%29.80 "HgN/A
12:20 AM63 °FClear.10 mph56%29.80 "Hg10 mi
11:50 PM
Fri, Apr 24
61 °FClear.10 mph55%29.80 "Hg10 mi
11:20 PM61 °FClear.8 mph55%29.80 "Hg10 mi
10:50 PM63 °FClear.8 mph56%29.80 "Hg10 mi
10:20 PM63 °FClear.8 mph52%29.80 "Hg10 mi
9:50 PM64 °FClear.7 mph49%29.80 "Hg10 mi
9:20 PM63 °FSunny.7 mph52%29.80 "Hg10 mi
8:50 PM63 °FSunny.6 mph52%29.80 "Hg10 mi
8:20 PM64 °FSunny.6 mph49%29.80 "Hg10 mi
7:50 PM66 °FSunny.8 mph46%29.80 "Hg10 mi
7:20 PM68 °FSunny.6 mph43%29.83 "Hg10 mi
6:50 PM68 °FSunny.7 mph38%29.83 "Hg10 mi
6:20 PM70 °FSunny.7 mph31%29.83 "Hg10 mi
5:50 PM70 °FSunny.8 mph31%29.83 "Hg10 mi
5:20 PM70 °FSunny.9 mph29%29.83 "Hg10 mi
4:50 PM70 °FSunny.8 mph27%29.86 "Hg10 mi
4:20 PM70 °FSunny.10 mph29%29.86 "Hg10 mi
3:50 PM70 °FSunny.12 mph29%29.86 "Hg10 mi
3:20 PM70 °FSunny.10 mph29%29.89 "Hg10 mi
2:50 PM68 °FSunny.13 mph33%29.89 "Hg10 mi
2:20 PM68 °FSunny.9 mph35%29.89 "Hg10 mi
Weather by CustomWeather, © 2015

See weather overviewHow to use our weather pages